This demonstration page uses our WeatherBlox Daily Observations layout. Learn more.

Left ArrowRight Arrow

38.80484, -77.04692

Hourly Observations for July 27, 2018

Temp ( °F °C ) Dew Point ( °F °C ) Humidity (%) Winds ( mph kmh ) Pressure ( in mb ) Visibility ( mi km ) Precip ( " mm )
12:52 am 00:52 Clear 77 25 72 22.2 85 85 S 8 13 29.97 1015 10 16 0.00 0.00
1:52 am 01:52 Partly Cloudy 77 25 72 22.2 85 85 S 7 11 29.95 1014 10 16 0.00 0.00
2:52 am 02:52 Partly Cloudy 77 25 72 22.2 85 85 S 5 7 29.94 1014 10 16 0.00 0.00
3:52 am 03:52 Partly Cloudy 77 25 73 22.8 88 88 S 5 7 29.95 1014 9 14 0.00 0.00
4:52 am 04:52 Partly Cloudy 76 24.4 73 22.8 91 91 S 5 7 29.95 1014 10 16 0.00 0.00
5:52 am 05:52 Mostly Cloudy 76 24.4 72 22.2 88 88 S 3 6 29.95 1014 10 16 0.00 0.00
6:52 am 06:52 Mostly Cloudy 76 24.4 72 22.2 88 88 S 5 7 29.97 1015 10 16 0.00 0.00
7:52 am 07:52 Mostly Cloudy 76 24.4 73 22.8 91 91 S 5 7 29.97 1015 8 13 0.00 0.00
8:52 am 08:52 Mostly Cloudy 79 26.1 73 22.8 82 82 SSE 6 9 29.98 1015 10 16 0.00 0.00
9:52 am 09:52 Mostly Cloudy 81 27.2 73 22.8 77 77 SE 3 6 29.98 1015 10 16 0.00 0.00
10:52 am 10:52 Mostly Cloudy 84 28.9 74 23.3 72 72 SSE 3 6 29.99 1016 10 16 0.00 0.00
11:52 am 11:52 Mostly Cloudy 86 30 72 22.2 63 63 SE 3 6 29.99 1016 10 16 0.00 0.00
12:52 pm 12:52 Mostly Cloudy 90 32.2 72 22.2 56 56 S 8 13 29.97 1015 10 16 0.00 0.00
1:25 pm 13:25 Mostly Cloudy with Nearby Thunderstorms 89 31.7 69 20.6 52 52 S 12 19 29.97 1015 10 16 0.00 0.00
1:52 pm 13:52 Mostly Cloudy with Thunderstorms 89 31.7 66 18.9 47 47 S 8 13 29.96 1015 10 16 0.00 0.00
2:33 pm 14:33 Mostly Cloudy with Nearby Thunderstorms 86 30 68 20 55 55 S 8 13 29.94 1014 10 16 0.00 0.00
2:52 pm 14:52 Mostly Cloudy with Nearby Thunderstorms 87 30.6 68 20 53 53 S 7 11 29.94 1014 10 16 0.00 0.00
3:28 pm 15:28 Mostly Cloudy 89 31.7 73 22.8 59 59 S 10 17 29.91 1013 10 16 0.00 0.00
3:52 pm 15:52 Mostly Cloudy 87 30.6 72 22.2 61 61 S 14 22 29.93 1014 10 16 0.00 0.00
4:06 pm 16:06 Mostly Cloudy with Nearby Thunderstorms 84 28.9 70 21.1 63 63 S 16 26 29.94 1014 10 16 0.00 0.00
4:36 pm 16:36 Mostly Cloudy 81 27.2 70 21.1 69 69 S 12 19 29.94 1014 10 16 0.00 0.00
4:52 pm 16:52 Mostly Cloudy 84 28.9 69 20.6 61 61 S 8 13 29.94 1014 10 16 0.00 0.00
5:52 pm 17:52 Mostly Cloudy 81 27.2 69 20.6 67 67 SSW 9 15 29.96 1014 10 16 0.00 0.00
6:31 pm 18:31 Cloudy with Light Rain 76 24.4 67 19.4 74 74 N 16 26 30.00 1016 10 16 0.00 0.03
6:52 pm 18:52 Mostly Cloudy 76 24.4 66 18.9 72 72 N 14 22 29.98 1015 10 16 0.00 0.03
7:52 pm 19:52 Mostly Cloudy 76 24.4 66 18.9 72 72 NE 8 13 29.98 1015 10 16 0.00 0.00
8:52 pm 20:52 Mostly Cloudy 76 24.4 66 18.9 72 72 Calm 29.99 1016 10 16 0.00 0.00
9:52 pm 21:52 Partly Cloudy 76 24.4 67 19.4 74 74 S 3 6 30.01 1016 10 16 0.00 0.00
10:52 pm 22:52 Mostly Cloudy 76 24.4 66 18.9 72 72 Calm 30.02 1017 10 16 0.00 0.00
11:18 pm 23:18 Mostly Cloudy with Nearby Thunderstorms 76 24.4 67 19.4 74 74 Calm 30.00 1016 10 16 0.00 0.00
11:36 pm 23:36 Mostly Cloudy 76 24.4 67 19.4 74 74 Calm 30.00 1016 10 16 0.00 0.00
11:52 pm 23:52 Mostly Cloudy 76 24.4 67 19.4 74 74 Calm 30.01 1016 10 16 0.00 0.00

Powered by AerisWeather